Location: *
(28.3744°N, 81.5492°W)
Time: 04:20:25
(UTC+00:00)

ADEOS II - Pass Details

Date: 15 June 2025
Orbit: 794 x 796 km, 98.7° (Epoch: 11 July)

Event Time Altitude Azimuth Distance (km) Brightness Sun altitude
Rises 09:16:02 0° 347° (NNW) 3,295 5.6 -14.4°
Reaches altitude 10° 09:19:31 10° 323° (NW) 2,362 4.5 -13.8°
Maximum altitude 09:22:03 14° 293° (WNW) 2,104 4.0 -13.3°
Enters shadow 09:23:58 12° 270° (W) 2,253 3.9 -13.0°
